Omaha, IA

5:43 PM CDT on October 18, 2017 (GMT -0500)
Eppley Airfield

Weather History for KOMA - November, 2012

Change the Weather History Date:

Tuesday, November 6, 2012

  Actual Average Record
Temperature  
Mean Temperature 48 °F 44 °F  
Max Temperature 58 °F 55 °F 80 °F (1980)
Min Temperature 38 °F 34 °F 7 °F (1991)
Degree Days  
Heating Degree Days 17 21  
Month to date heating degree days 115 118  
Since 1 July heating degree days 635 603  
Cooling Degree Days 0 0  
Month to date cooling degree days 0 0  
Year to date cooling degree days 1649 1112  
Moisture  
Dew Point 34 °F    
Average Humidity 63    
Maximum Humidity 89    
Minimum Humidity 36    
Precipitation  
Precipitation 0.00 in 0.05 in 1.99 in (2000)
Month to date precipitation 0.09 0.37  
Year to date precipitation 20.47 28.31  
Snow  
Snow 0.00 in 0.00 in - ()
Month to date snowfall 0.0 0.2  
Since 1 July snowfall 0.0 0.5  
Snow Depth 0.00 in    
Sea Level Pressure  
Sea Level Pressure 30.02 in    
Wind  
Wind Speed 14 mph (WNW)    
Max Wind Speed 32 mph    
Max Gust Speed 40 mph    
Visibility 9 miles    
Events      
T = Trace of Precipitation, MM = Missing Value Source: NWS Daily Summary

Daily Weather History Graph

Daily Weather History Graph

Search for Another Location

Airport or City:

Trip Planner

Search our weather history database for the weather conditions in past years. The results will help you decide how hot, cold, wet, or windy it might be!

Date:

Astronomy

Nov. 06, 2012 Rise Set
Actual Time 7:01 AM CST 5:12 PM CST
Civil Twilight 6:32 AM CST 5:41 PM CST
Nautical Twilight 5:59 AM CST 6:14 PM CST
Astronomical Twilight 5:27 AM CST 6:46 PM CST
Moon 11:53 PM CST (11/6) 12:53 PM CST (11/6)
Length of Visible Light 11h 08m
Length of Day
10h 10m
Waning Gibbous, 53% of the Moon is Illuminated
Nov 6
Waning Gibbous
Nov 6
Last Quarter
Nov 13
New
Nov 20
First Quarter
Nov 28
Full

Hourly Weather History & Observations

Time (CST) Temp. Windchill Dew Point Humidity Pressure Visibility Wind Dir Wind Speed Gust Speed Precip Events Conditions
12:52 AM 42.1 °F 37.7 °F 39.0 °F 89% 30.04 in 5.0 mi South 6.9 mph - N/A   Overcast
1:29 AM 42.8 °F 36.2 °F 37.4 °F 81% 30.01 in 6.0 mi SSE 12.7 mph - N/A   Overcast
1:52 AM 42.8 °F 37.5 °F 37.4 °F 81% 30.03 in 6.0 mi South 9.2 mph - N/A   Overcast
2:52 AM 42.1 °F 35.7 °F 37.9 °F 85% 30.01 in 6.0 mi South 11.5 mph - N/A   Mostly Cloudy
3:52 AM 42.1 °F 34.9 °F 37.0 °F 82% 29.98 in 7.0 mi South 13.8 mph - N/A   Overcast
4:52 AM 42.1 °F 36.1 °F 37.0 °F 82% 29.97 in 7.0 mi SSW 10.4 mph - N/A   Overcast
5:52 AM 42.1 °F 37.1 °F 36.0 °F 79% 29.97 in 10.0 mi SW 8.1 mph - N/A   Scattered Clouds
6:35 AM 42.8 °F 38.6 °F 35.6 °F 76% 29.97 in 10.0 mi WSW 6.9 mph - N/A   Overcast
6:52 AM 42.1 °F 39.2 °F 36.0 °F 79% 29.98 in 10.0 mi West 4.6 mph - N/A   Overcast
7:07 AM 42.8 °F 38.6 °F 35.6 °F 76% 29.96 in 10.0 mi West 6.9 mph - N/A   Scattered Clouds
7:52 AM 42.1 °F 35.2 °F 37.0 °F 82% 30.01 in 10.0 mi NW 12.7 mph - N/A   Partly Cloudy
8:52 AM 46.9 °F - 37.0 °F 68% 30.03 in 10.0 mi NNW 21.9 mph 31.1 mph N/A   Clear
9:52 AM 50.0 °F - 35.1 °F 57% 30.03 in 10.0 mi NNW 18.4 mph 28.8 mph N/A   Clear
10:52 AM 52.0 °F - 34.0 °F 50% 30.04 in 10.0 mi NW 20.7 mph - N/A   Partly Cloudy
11:52 AM 55.0 °F - 32.0 °F 42% 30.01 in 10.0 mi NNW 21.9 mph 26.5 mph N/A   Partly Cloudy
12:52 PM 55.9 °F - 30.9 °F 39% 30.00 in 10.0 mi NW 20.7 mph 31.1 mph N/A   Scattered Clouds
1:52 PM 57.0 °F - 30.0 °F 36% 29.99 in 10.0 mi NW 26.5 mph 40.3 mph N/A   Scattered Clouds
2:52 PM 55.9 °F - 30.9 °F 39% 29.99 in 10.0 mi NNW 24.2 mph 36.8 mph N/A   Scattered Clouds
3:52 PM 55.0 °F - 30.9 °F 40% 30.01 in 10.0 mi NNW 24.2 mph 34.5 mph N/A   Scattered Clouds
4:52 PM 54.0 °F - 30.9 °F 41% 30.02 in 10.0 mi NW 17.3 mph 26.5 mph N/A   Scattered Clouds
5:52 PM 48.9 °F - 30.9 °F 50% 30.04 in 10.0 mi NW 11.5 mph - N/A   Clear
6:52 PM 48.9 °F - 30.9 °F 50% 30.06 in 10.0 mi WNW 9.2 mph - N/A   Clear
7:52 PM 45.0 °F 40.1 °F 30.9 °F 58% 30.07 in 10.0 mi WNW 9.2 mph - N/A   Clear
8:52 PM 42.1 °F 38.4 °F 30.9 °F 65% 30.09 in 10.0 mi NNE 5.8 mph - N/A   Clear
9:52 PM 39.9 °F 37.8 °F 30.9 °F 70% 30.09 in 10.0 mi North 3.5 mph - N/A   Clear
10:52 PM 39.0 °F 35.7 °F 30.0 °F 70% 30.09 in 10.0 mi NNW 4.6 mph - N/A   Clear
11:52 PM 41.0 °F 36.4 °F 30.0 °F 65% 30.09 in 10.0 mi NNW 6.9 mph - N/A   Clear